This demonstration page uses our WeatherBlox Daily Observations layout. Learn more.

Left ArrowRight Arrow

44.8408, -93.29828

Hourly Observations for January 19, 2022

Temp ( °F °C ) Dew Point ( °F °C ) Humidity (%) Winds ( mph kmh ) Pressure ( in mb ) Visibility ( mi km ) Precip ( " mm )
12:53 am 00:53 Mostly Clear 8 -13.3 -1 -18.3 66 66 WNW 13 20 30.01 1016 10 16 0.00 0.00
1:10 am 01:10 Mostly Cloudy 8 -13.3 -1 -18.3 66 66 WNW 15 24 30.08 1018 10 16 0.00 0.00
1:53 am 01:53 Cloudy 7 -13.9 -1 -18.3 70 70 WNW 16 26 30.04 1017 10 16 0.00 0.00
2:53 am 02:53 Cloudy 8 -13.3 -1 -18.3 66 66 NW 18 30 30.08 1019 10 16 0.00 0.00
3:53 am 03:53 Mostly Cloudy 6 -14.4 -2 -18.9 69 69 WNW 16 26 30.12 1020 9 14 0.00 0.00
4:09 am 04:09 Partly Cloudy 6 -14.4 -2 -18.9 69 69 WNW 21 33 30.19 1022 10 16 0.00 0.00
4:24 am 04:24 Mostly Cloudy 5 -15 -3 -19.4 69 69 WNW 16 26 30.19 1022 10 16 0.00 0.00
4:53 am 04:53 Mostly Cloudy 4 -15.6 -6 -21.1 63 63 NW 26 43 30.15 1021 10 16 0.00 0.00
5:00 am 05:00 Mostly Clear 4 -15.6 -6 -21.1 63 63 NW 23 37 30.22 1023 10 16 0.00 0.00
5:53 am 05:53 Mostly Clear 1 -17.2 -9 -22.8 62 62 NW 18 30 30.20 1023 10 16 0.00 0.00
6:53 am 06:53 Clear 0 -17.8 -10 -23.3 62 62 NW 16 26 30.26 1025 10 16 0.00 0.00
7:53 am 07:53 Sunny -1 -18.3 -11 -23.9 62 62 NW 17 28 30.32 1027 10 16 0.00 0.00
8:53 am 08:53 Mostly Sunny -1 -18.3 -10 -23.3 65 65 NW 15 24 30.35 1028 10 16 0.00 0.00
9:53 am 09:53 Mostly Sunny 0 -17.8 -10 -23.3 62 62 NW 18 30 30.39 1029 10 16 0.00 0.00
10:53 am 10:53 Sunny 2 -16.7 -9 -22.8 59 59 NW 15 24 30.42 1030 10 16 0.00 0.00
11:53 am 11:53 Sunny 4 -15.6 -8 -22.2 57 57 NW 17 28 30.43 1031 10 16 0.00 0.00
12:53 pm 12:53 Sunny 6 -14.4 -7 -21.7 54 54 NW 18 30 30.44 1031 10 16 0.00 0.00
1:53 pm 13:53 Sunny 7 -13.9 -6 -21.1 55 55 NNW 16 26 30.45 1031 10 16 0.00 0.00
2:53 pm 14:53 Sunny 8 -13.3 -6 -21.1 52 52 NW 17 28 30.48 1032 10 16 0.00 0.00
3:53 pm 15:53 Sunny 7 -13.9 -6 -21.1 55 55 NW 20 31 30.49 1033 10 16 0.00 0.00
4:53 pm 16:53 Sunny 6 -14.4 -7 -21.7 54 54 NW 17 28 30.53 1034 10 16 0.00 0.00
5:53 pm 17:53 Clear 4 -15.6 -8 -22.2 57 57 NW 14 22 30.57 1035 10 16 0.00 0.00
6:53 pm 18:53 Clear 3 -16.1 -9 -22.8 57 57 NW 15 24 30.59 1036 10 16 0.00 0.00
7:53 pm 19:53 Clear 1 -17.2 -10 -23.3 59 59 NW 16 26 30.62 1037 10 16 0.00 0.00
8:53 pm 20:53 Clear -1 -18.3 -11 -23.9 62 62 NNW 16 26 30.63 1037 10 16 0.00 0.00
9:53 pm 21:53 Clear -2 -18.9 -12 -24.4 62 62 NW 15 24 30.65 1038 10 16 0.00 0.00
10:53 pm 22:53 Clear -4 -20 -13 -25 65 65 NW 12 19 30.67 1039 10 16 0.00 0.00
11:53 pm 23:53 Clear -5 -20.6 -14 -25.6 64 64 NW 14 22 30.69 1039 10 16 0.00 0.00

Powered by AerisWeather